Location: Unspecified
(0.0000°N, 0.0000°E)
Time: 14:50:01
(UTC+00:00)

STARLINK-36945 - Pass Details

Date: 04 March 2026
Orbit: 269 x 270 km, 53.2° (Epoch: 6 March)

Event Time Altitude Azimuth Distance (km) Brightness Sun altitude
Rises 19:02:16 0° 219° (SW) 1,842 6.0 -12.6°
Reaches altitude 10° 19:04:08 10° 223° (SW) 1,042 4.8 -13.0°
Maximum altitude 19:06:25 59° 304° (WNW) 305 1.6 -13.6°
Enters shadow 19:07:45 21° 19° (NNE) 660 2.8 -13.9°
